GW2646 Weather Reports


Display with metric or nautical units.
time (UTC)temp
F
wind
direction
speed
MPH
gust
MPH
rain 1hr
in
rain 24hr
in
rain mn
in
humidity
%
barometer
mb
20260508220057 59 150 5.0 12.0 0.00 0.00 0.00 58 1021.0
20260508215545 59 169 4.0 12.0 0.00 0.00 0.00 59 1021.0
20260508215044 59 199 5.0 13.0 0.00 0.00 0.00 59 1020.9
20260508214556 58 0 5.0 13.0 0.00 0.00 0.00 58 1020.8
20260508214046 58 155 5.0 12.0 0.00 0.00 0.00 62 1020.8
20260508213544 58 198 6.0 12.0 0.00 0.00 0.00 61 1020.9
20260508213053 58 167 4.0 11.0 0.00 0.00 0.00 63 1020.9
20260508212547 58 195 5.0 11.0 0.00 0.00 0.00 61 1020.9
20260508212047 58 142 5.0 17.0 0.00 0.00 0.00 64 1021.0
20260508211555 57 214 5.0 17.0 0.00 0.00 0.00 64 1020.9
20260508211046 58 126 5.0 14.0 0.00 0.00 0.00 64 1020.9
20260508210547 58 180 6.0 14.0 0.00 0.00 0.00 63 1020.8
20260508210059 58 157 5.0 15.0 0.00 0.00 0.00 63 1020.7
20260508205548 57 162 7.0 15.0 0.00 0.00 0.00 64 1020.7
20260508205045 58 193 5.0 15.0 0.00 0.00 0.00 62 1020.6
20260508204556 58 157 5.0 11.0 0.00 0.00 0.00 63 1020.7
20260508204046 58 78 6.0 14.0 0.00 0.00 0.00 62 1020.6
20260508203545 58 163 6.0 14.0 0.00 0.00 0.00 63 1020.7
20260508203106 58 65 3.0 14.0 0.00 0.00 0.00 62 1020.6
20260508202546 58 153 5.0 14.0 0.00 0.00 0.00 63 1020.7
20260508202047 58 178 4.0 14.0 0.00 0.00 0.00 62 1020.7
20260508201557 58 121 6.0 14.0 0.00 0.00 0.00 60 1020.7
20260508201046 58 184 5.0 16.0 0.00 0.00 0.00 62 1020.6
20260508200546 58 248 5.0 16.0 0.00 0.00 0.00 60 1020.6
20260508200052 58 208 2.0 14.0 0.00 0.00 0.00 59 1020.5
20260508195549 57 195 6.0 14.0 0.00 0.00 0.00 61 1020.5
20260508195045 57 161 4.0 16.0 0.00 0.00 0.00 64 1020.4
20260508194551 57 248 3.0 16.0 0.00 0.00 0.00 65 1020.4
20260508194048 56 159 7.0 14.0 0.00 0.00 0.00 66 1020.4
20260508193547 56 230 5.0 13.0 0.00 0.00 0.00 66 1020.3
20260508193054 56 217 6.0 16.0 0.00 0.00 0.00 66 1020.3
20260508192549 57 173 8.0 16.0 0.00 0.00 0.00 64 1020.3
20260508192047 57 175 7.0 15.0 0.00 0.00 0.00 63 1020.3
20260508191551 58 175 4.0 14.0 0.00 0.00 0.00 63 1020.2
20260508191051 57 206 5.0 14.0 0.00 0.00 0.00 65 1020.2
20260508190547 57 227 6.0 12.0 0.00 0.00 0.00 67 1020.4
20260508190054 56 202 6.0 11.0 0.00 0.00 0.00 67 1020.3
20260508185549 56 140 5.0 10.0 0.00 0.00 0.00 68 1020.3
20260508185046 56 248 4.0 11.0 0.00 0.00 0.00 69 1020.2
20260508184554 55 227 5.0 14.0 0.00 0.00 0.00 68 1020.2
20260508184045 55 183 4.0 14.0 0.00 0.00 0.00 70 1020.2
20260508183548 55 194 5.0 14.0 0.00 0.00 0.00 69 1020.3
20260508183052 55 161 6.0 14.0 0.00 0.00 0.00 69 1020.2
20260508182548 56 216 6.0 13.0 0.00 0.00 0.00 69 1020.2
20260508182047 56 142 5.0 13.0 0.00 0.00 0.00 68 1020.2
20260508181557 55 205 4.0 12.0 0.00 0.00 0.00 71 1020.0
20260508181047 55 177 4.0 10.0 0.00 0.00 0.00 72 1020.0
20260508180547 54 194 3.0 11.0 0.00 0.00 0.00 76 1020.0
20260508180052 54 180 3.0 15.0 0.00 0.00 0.00 77 1020.0
20260508175547 54 214 5.0 16.0 0.00 0.00 0.00 76 1019.9
20260508175047 54 192 7.0 16.0 0.00 0.00 0.00 75 1019.9
20260508174600 54 0 3.0 11.0 0.00 0.00 0.00 77 1019.8
20260508174046 54 155 3.0 11.0 0.00 0.00 0.00 79 1019.7
20260508173549 54 187 2.0 17.0 0.00 0.00 0.00 80 1019.6
20260508173056 53 120 5.0 17.0 0.00 0.00 0.00 80 1019.4
20260508172546 53 173 4.0 16.0 0.00 0.00 0.00 81 1019.4
20260508172046 53 157 5.0 12.0 0.00 0.00 0.00 81 1019.4
20260508171552 53 192 6.0 11.0 0.00 0.00 0.00 81 1019.3
20260508171046 53 171 5.0 10.0 0.00 0.00 0.00 81 1019.1
20260508170545 52 171 3.0 8.0 0.00 0.00 0.00 83 1019.1
20260508170052 52 184 1.0 8.0 0.00 0.00 0.00 85 1018.9
20260508165545 52 0 2.0 10.0 0.00 0.00 0.00 84 1018.9
20260508165045 52 167 4.0 13.0 0.00 0.00 0.00 84 1019.0
20260508164556 52 167 4.0 13.0 0.00 0.00 0.00 84 1019.0
20260508164047 51 159 4.0 8.0 0.00 0.00 0.00 85 1018.9
20260508163548 51 169 3.0 11.0 0.00 0.00 0.00 86 1018.8
20260508163050 51 142 4.0 12.0 0.00 0.00 0.00 87 1018.8
20260508162545 51 219 4.0 12.0 0.00 0.00 0.00 88 1018.9
20260508162047 51 183 3.0 12.0 0.00 0.00 0.00 89 1018.9
20260508161555 50 137 2.0 8.0 0.00 0.00 0.00 89 1018.9
20260508161050 50 165 2.0 8.0 0.00 0.00 0.00 90 1018.9
20260508160544 50 173 4.0 8.0 0.00 0.00 0.00 90 1019.0
20260508160048 50 163 3.0 8.0 0.00 0.00 0.00 90 1019.0
20260508155546 50 114 1.0 9.0 0.00 0.00 0.00 90 1019.1
20260508155046 50 157 2.0 9.0 0.00 0.00 0.00 91 1018.9
20260508154607 50 156 4.0 9.0 0.00 0.00 0.00 91 1018.9
20260508154043 50 116 3.0 8.0 0.00 0.00 0.00 91 1018.8
20260508153546 50 162 3.0 8.0 0.00 0.00 0.00 91 1018.9
20260508153053 50 186 3.0 9.0 0.00 0.00 0.00 91 1018.8
20260508152546 50 167 2.0 9.0 0.00 0.00 0.00 92 1018.8
20260508152047 50 153 3.0 12.0 0.00 0.00 0.00 92 1018.7
20260508151553 50 168 4.0 12.0 0.00 0.00 0.00 92 1018.6
20260508151043 50 164 3.0 8.0 0.00 0.00 0.00 93 1018.5
20260508150545 50 150 3.0 8.0 0.00 0.00 0.00 93 1018.5
20260508145547 50 0 3.0 7.0 0.00 0.00 0.00 95 1018.4
20260508145046 49 182 1.0 6.0 0.00 0.00 0.00 95 1018.3
20260508144554 49 169 1.0 8.0 0.00 0.00 0.00 96 1018.1
20260508144047 49 155 1.0 8.0 0.00 0.00 0.00 96 1018.1
20260508143548 49 0 1.0 4.0 0.00 0.00 0.00 96 1018.1
20260508143119 48 179 0.0 2.0 0.00 0.00 0.00 96 1018.0
20260508142546 48 0 0.0 1.0 0.00 0.00 0.00 96 1017.9
20260508142047 48 0 0.0 2.0 0.00 0.00 0.00 97 1017.8
20260508141552 48 0 0.0 2.0 0.00 0.00 0.00 97 1017.7
20260508141045 48 179 0.0 0.0 0.00 0.00 0.00 96 1017.6
20260508140545 48 0 0.0 0.0 0.00 0.00 0.00 96 1017.6
20260508140106 48 0 0.0 0.0 0.00 0.00 0.00 96 1017.5
20260508135544 48 0 0.0 0.0 0.00 0.00 0.00 96 1017.5
20260508135046 48 0 0.0 0.0 0.00 0.00 0.00 96 1017.4
20260508134556 48 0 0.0 0.0 0.00 0.00 0.00 96 1017.3
20260508134045 47 0 0.0 0.0 0.00 0.00 0.00 96 1017.4
20260508133547 47 0 0.0 0.0 0.00 0.00 0.00 96 1017.3
20260508133106 47 0 0.0 0.0 0.00 0.00 0.00 96 1017.4
20260508132549 47 0 0.0 0.0 0.00 0.00 0.00 96 1017.3
20260508132047 47 0 0.0 0.0 0.00 0.00 0.00 96 1017.2
20260508131600 47 0 0.0 0.0 0.00 0.00 0.00 96 1017.1
20260508131047 47 0 0.0 0.0 0.00 0.00 0.00 96 1017.1
20260508130547 47 0 0.0 0.0 0.00 0.00 0.00 96 1017.1
20260508130059 47 0 0.0 0.0 0.00 0.00 0.00 96 1017.0
20260508125548 47 0 0.0 0.0 0.00 0.00 0.00 96 1017.1
20260508125046 47 0 0.0 0.0 0.00 0.00 0.00 96 1017.0
20260508124553 47 0 0.0 0.0 0.00 0.00 0.00 96 1016.8
20260508124048 47 0 0.0 0.0 0.00 0.00 0.00 96 1016.8
20260508123547 47 0 0.0 0.0 0.00 0.00 0.00 96 1016.7
20260508123055 47 0 0.0 0.0 0.00 0.00 0.00 96 1016.6
20260508122547 47 0 0.0 0.0 0.00 0.00 0.00 96 1016.6
20260508122052 47 0 0.0 1.0 0.00 0.00 0.00 96 1016.5
20260508121556 47 0 0.0 1.0 0.00 0.00 0.00 96 1016.4
20260508121047 47 0 0.0 0.0 0.00 0.00 0.00 96 1016.5
20260508120545 47 0 0.0 0.0 0.00 0.00 0.00 96 1016.4
20260508120052 47 0 0.0 0.0 0.00 0.00 0.00 96 1016.3
20260508115547 47 0 0.0 0.0 0.00 0.00 0.00 96 1016.4
20260508115046 47 0 0.0 0.0 0.00 0.00 0.00 96 1016.4
20260508114554 47 0 0.0 0.0 0.00 0.00 0.00 96 1016.4
20260508114047 47 0 0.0 0.0 0.00 0.00 0.00 96 1016.4
20260508113549 47 0 0.0 0.0 0.00 0.00 0.00 97 1016.4
20260508113057 47 0 0.0 0.0 0.00 0.00 0.00 96 1016.3
20260508112546 46 0 0.0 0.0 0.00 0.00 0.00 96 1016.2
20260508112046 46 0 0.0 0.0 0.00 0.00 0.00 96 1016.1
20260508111605 46 0 0.0 0.0 0.00 0.00 0.00 96 1016.1
20260508111046 46 0 0.0 0.0 0.00 0.00 0.00 96 1016.2
20260508110544 46 0 0.0 0.0 0.00 0.00 0.00 96 1016.3
20260508105545 46 0 0.0 0.0 0.00 0.01 0.00 95 1016.2
20260508105048 46 0 0.0 2.0 0.00 0.01 0.00 96 1016.3
20260508104551 46 0 0.0 2.0 0.00 0.01 0.00 95 1016.2
20260508104045 46 0 0.0 1.0 0.00 0.01 0.00 95 1016.1
20260508103545 46 0 0.0 0.0 0.00 0.01 0.00 95 1016.2
20260508103053 46 0 0.0 0.0 0.00 0.01 0.00 95 1016.1
20260508102547 46 0 0.0 0.0 0.00 0.01 0.00 95 1016.0
20260508102047 46 0 0.0 0.0 0.00 0.01 0.00 95 1016.1
20260508101550 46 0 0.0 1.0 0.00 0.01 0.00 95 1016.0
20260508101045 46 0 0.0 1.0 0.00 0.01 0.00 95 1016.0
20260508100546 46 0 0.0 0.0 0.00 0.01 0.00 95 1016.1
20260508100055 46 0 0.0 0.0 0.00 0.01 0.00 95 1015.9
20260508095547 46 0 0.0 2.0 0.00 0.01 0.00 95 1015.9
20260508095046 46 0 0.0 2.0 0.00 0.01 0.00 95 1016.0
20260508094553 46 0 0.0 2.0 0.00 0.01 0.00 95 1015.9
20260508094045 46 0 0.0 1.0 0.00 0.01 0.00 95 1015.9
20260508093549 46 0 0.0 0.0 0.00 0.01 0.00 95 1015.8
20260508093050 46 0 0.0 0.0 0.00 0.01 0.00 95 1015.8
20260508092546 46 0 0.0 1.0 0.00 0.01 0.00 95 1015.8
20260508092045 46 0 0.0 2.0 0.00 0.01 0.00 95 1015.9
20260508091606 46 0 0.0 2.0 0.00 0.01 0.00 95 1015.9
20260508091047 46 179 0.0 0.0 0.00 0.01 0.00 95 1015.9
20260508090547 46 0 0.0 0.0 0.00 0.01 0.00 95 1016.0
20260508090055 47 0 0.0 0.0 0.00 0.01 0.00 95 1016.0
20260508085546 47 0 0.0 0.0 0.00 0.01 0.00 95 1016.0
20260508085047 47 0 0.0 0.0 0.00 0.01 0.00 95 1016.1
20260508084558 47 0 0.0 0.0 0.00 0.01 0.00 95 1016.1
20260508084045 47 0 0.0 0.0 0.00 0.01 0.00 94 1016.1
20260508083546 47 0 0.0 0.0 0.00 0.01 0.00 95 1016.0
20260508083103 47 0 0.0 0.0 0.00 0.01 0.00 94 1016.1
20260508082547 47 0 0.0 0.0 0.00 0.01 0.00 94 1016.1
20260508082046 47 0 0.0 0.0 0.00 0.01 0.00 94 1016.2
20260508081555 47 0 0.0 0.0 0.00 0.01 0.00 94 1016.2
20260508081045 47 0 0.0 0.0 0.00 0.01 0.00 94 1016.3
20260508080548 47 0 0.0 0.0 0.00 0.01 0.00 94 1016.4
20260508080106 47 0 0.0 0.0 0.00 0.01 0.00 94 1016.4
20260508075547 47 0 0.0 0.0 0.00 0.03 0.00 94 1016.3
20260508075048 47 0 0.0 0.0 0.00 0.03 0.00 94 1016.4
20260508074603 47 0 0.0 0.0 0.00 0.03 0.00 94 1016.4
20260508074047 47 0 0.0 0.0 0.00 0.03 0.00 94 1016.4
20260508073550 47 0 0.0 0.0 0.00 0.03 0.00 94 1016.4
20260508073058 47 0 0.0 1.0 0.00 0.03 0.00 94 1016.4
20260508072546 47 0 0.0 1.0 0.00 0.03 0.00 94 1016.5
20260508072044 47 0 0.0 0.0 0.00 0.03 0.00 93 1016.5
20260508071553 47 0 0.0 0.0 0.00 0.03 0.00 93 1016.5
20260508071046 47 0 0.0 0.0 0.00 0.03 0.00 93 1016.5
20260508070547 47 0 0.0 0.0 0.00 0.03 0.00 93 1016.4
20260508070054 48 0 0.0 0.0 0.00 0.03 0.00 93 1016.5
20260508065546 48 0 0.0 0.0 0.00 0.03 0.03 93 1016.5
20260508065045 48 0 0.0 0.0 0.00 0.03 0.03 93 1016.5
20260508064557 48 0 0.0 0.0 0.00 0.03 0.03 93 1016.5
20260508064048 48 0 0.0 1.0 0.00 0.03 0.03 93 1016.5
20260508063547 48 0 0.0 1.0 0.00 0.03 0.03 92 1016.6
20260508063054 49 0 0.0 1.0 0.00 0.03 0.03 92 1016.6
20260508062546 49 0 0.0 1.0 0.00 0.03 0.03 93 1016.6
20260508062047 49 0 0.0 2.0 0.00 0.03 0.03 92 1016.6
20260508061551 49 179 0.0 2.0 0.00 0.03 0.03 92 1016.5
20260508061048 49 0 0.0 1.0 0.00 0.03 0.03 92 1016.6
20260508060547 49 0 0.0 0.0 0.00 0.03 0.03 92 1016.6
20260508060051 49 0 0.0 0.0 0.00 0.03 0.03 92 1016.6
20260508055546 49 0 0.0 1.0 0.00 0.03 0.03 92 1016.5
20260508055047 49 0 0.0 1.0 0.00 0.03 0.03 92 1016.5
20260508054553 49 0 0.0 0.0 0.00 0.03 0.03 91 1016.5
20260508054047 49 0 0.0 0.0 0.00 0.03 0.03 91 1016.6
20260508053547 49 0 0.0 0.0 0.00 0.03 0.03 91 1016.5
20260508053055 49 0 0.0 1.0 0.00 0.03 0.03 91 1016.5
20260508052546 50 0 0.0 1.0 0.00 0.03 0.03 91 1016.6
20260508052045 50 0 0.0 0.0 0.00 0.03 0.03 90 1016.5
20260508051608 50 0 0.0 0.0 0.00 0.03 0.03 90 1016.5
20260508051047 50 0 0.0 1.0 0.00 0.03 0.03 90 1016.5
20260508050546 50 0 0.0 1.0 0.00 0.03 0.03 90 1016.5
20260508050103 51 0 0.0 1.0 0.00 0.03 0.03 90 1016.7
20260508045544 51 0 0.0 0.0 0.00 0.03 0.03 89 1016.7
20260508045045 51 0 0.0 0.0 0.00 0.03 0.03 89 1016.7
20260508044556 51 0 0.0 0.0 0.00 0.03 0.03 89 1016.7
20260508044047 51 0 0.0 0.0 0.00 0.03 0.03 89 1016.8
20260508043545 52 0 0.0 0.0 0.00 0.03 0.03 88 1016.8
20260508043051 52 0 0.0 1.0 0.00 0.03 0.03 88 1016.8
20260508042547 52 0 0.0 1.0 0.00 0.03 0.03 87 1016.9
20260508042046 52 0 0.0 1.0 0.00 0.03 0.03 87 1016.8
20260508041555 53 0 0.0 0.0 0.00 0.03 0.03 86 1016.9
20260508041047 53 0 0.0 1.0 0.00 0.03 0.03 86 1016.8
20260508040546 53 0 0.0 1.0 0.00 0.03 0.03 86 1016.7
20260508040100 54 0 0.0 0.0 0.00 0.03 0.03 85 1016.7
20260508035550 54 0 0.0 0.0 0.00 0.03 0.03 84 1016.8
20260508035047 55 0 0.0 0.0 0.00 0.03 0.03 83 1016.8
20260508034554 55 0 0.0 0.0 0.00 0.03 0.03 82 1016.7
20260508034047 55 0 0.0 0.0 0.00 0.03 0.03 81 1016.8
20260508033548 56 0 0.0 0.0 0.00 0.03 0.03 80 1016.8
20260508033052 56 0 0.0 0.0 0.00 0.03 0.03 79 1016.7
20260508032548 57 0 0.0 0.0 0.00 0.03 0.03 78 1016.8
20260508032046 58 0 0.0 0.0 0.00 0.03 0.03 77 1016.8
20260508031551 59 0 0.0 0.0 0.00 0.03 0.03 75 1016.7
20260508031047 60 0 0.0 1.0 0.00 0.03 0.03 73 1016.9
20260508030547 60 0 0.0 2.0 0.00 0.03 0.03 72 1016.8
20260508030054 61 0 0.0 3.0 0.00 0.03 0.03 69 1016.8
20260508025545 61 0 0.0 3.0 0.00 0.03 0.03 69 1016.8
20260508025046 61 179 0.0 3.0 0.00 0.03 0.03 69 1016.9
20260508024552 61 0 0.0 3.0 0.00 0.03 0.03 69 1016.8
20260508024047 61 179 0.0 3.0 0.00 0.03 0.03 69 1016.8
20260508023545 61 179 0.0 3.0 0.00 0.03 0.03 69 1017.0
20260508023053 61 0 0.0 4.0 0.00 0.03 0.03 68 1016.9
20260508022551 61 0 0.0 4.0 0.00 0.03 0.03 68 1016.9
20260508022048 61 179 1.0 4.0 0.00 0.03 0.03 68 1017.1
20260508021554 61 200 1.0 4.0 0.00 0.03 0.03 68 1017.0
20260508021043 62 205 1.0 4.0 0.00 0.03 0.03 66 1017.1
20260508020547 62 198 1.0 4.0 0.00 0.03 0.03 66 1017.1
20260508020056 63 0 0.0 5.0 0.00 0.03 0.03 66 1017.1
20260508015545 63 153 0.0 5.0 0.00 0.03 0.03 66 1017.0
20260508015045 62 0 2.0 5.0 0.00 0.03 0.03 67 1017.1
20260508014552 62 0 2.0 5.0 0.00 0.03 0.03 67 1017.2
20260508014047 62 164 1.0 4.0 0.00 0.03 0.03 68 1017.1
20260508013546 61 0 1.0 5.0 0.00 0.03 0.03 68 1017.2
20260508013050 61 0 0.0 6.0 0.00 0.03 0.03 68 1017.2
20260508012547 61 200 3.0 6.0 0.00 0.03 0.03 68 1017.2
20260508012047 61 0 2.0 6.0 0.00 0.03 0.03 69 1017.3
20260508011549 61 0 1.0 8.0 0.00 0.03 0.03 70 1017.4
20260508011046 61 196 3.0 8.0 0.00 0.03 0.03 70 1017.4
20260508010546 61 216 2.0 7.0 0.00 0.03 0.03 69 1017.3
20260508010051 61 216 2.0 6.0 0.00 0.03 0.03 69 1017.5
20260508005546 61 0 1.0 6.0 0.00 0.03 0.03 69 1017.5
20260508005046 62 240 2.0 6.0 0.00 0.03 0.03 69 1017.5
20260508004555 62 37 0.0 4.0 0.00 0.03 0.03 69 1017.5
20260508004046 62 17 1.0 5.0 0.00 0.03 0.03 67 1017.6
20260508003549 62 313 0.0 6.0 0.00 0.03 0.03 68 1017.6
20260508003053 62 180 2.0 6.0 0.00 0.03 0.03 69 1017.5
20260508002545 62 0 3.0 6.0 0.00 0.03 0.03 69 1017.5
20260508002048 62 37 1.0 4.0 0.00 0.03 0.03 68 1017.4
20260508001549 62 0 0.0 2.0 0.00 0.03 0.03 68 1017.5
20260508001047 63 229 0.0 2.0 0.00 0.03 0.03 67 1017.5
20260508000543 63 229 0.0 2.0 0.00 0.03 0.03 65 1017.4
20260508000055 64 0 0.0 5.0 0.00 0.03 0.03 68 1017.4
20260507235550 63 0 0.0 5.0 0.00 0.03 0.03 67 1017.5
20260507235046 64 196 0.0 4.0 0.00 0.03 0.03 67 1017.5
20260507234555 64 219 0.0 4.0 0.00 0.03 0.03 66 1017.5
20260507234045 64 150 0.0 5.0 0.00 0.03 0.03 68 1017.5
20260507233545 63 0 0.0 5.0 0.00 0.03 0.03 68 1017.5
20260507233112 63 149 0.0 7.0 0.00 0.03 0.03 69 1017.6
20260507232547 62 0 1.0 7.0 0.00 0.03 0.03 69 1017.6
20260507232049 62 136 1.0 5.0 0.00 0.03 0.03 68 1017.7
20260507231552 62 171 1.0 6.0 0.00 0.03 0.03 68 1017.7
20260507231047 62 0 0.0 6.0 0.00 0.03 0.03 69 1017.7
20260507230545 63 192 1.0 6.0 0.00 0.03 0.03 68 1017.7
20260507230053 62 0 0.0 6.0 0.00 0.03 0.03 71 1017.9
20260507225547 61 179 1.0 6.0 0.00 0.03 0.03 71 1017.9
20260507225047 61 0 0.0 3.0 0.00 0.03 0.03 72 1018.0
20260507224553 60 350 1.0 3.0 0.00 0.03 0.03 75 1018.0
20260507224047 60 0 0.0 3.0 0.00 0.03 0.03 73 1018.0
20260507223549 60 335 0.0 3.0 0.00 0.03 0.03 75 1018.1
20260507223108 60 317 0.0 3.0 0.00 0.03 0.03 74 1018.2
20260507222545 60 0 0.0 3.0 0.00 0.03 0.03 72 1018.3
20260507222045 59 0 0.0 2.0 0.00 0.03 0.03 76 1018.4
20260507221550 59 317 0.0 2.0 0.00 0.03 0.03 73 1018.5
20260507221046 60 0 0.0 2.0 0.00 0.03 0.03 74 1018.6
20260507220545 59 0 0.0 3.0 0.00 0.03 0.03 75 1018.6